WD9EKA Weather Reports


Display with metric or nautical units.
time (UTC)temp
F
wind
direction
speed
MPH
gust
MPH
rain 1hr
in
rain 24hr
in
rain mn
in
humidity
%
barometer
mb
20260509230725 73 245 3.0 5.0 0.00 0.26 0.13 68 1003.2
20260509230205 72 286 4.0 4.0 0.00 0.26 0.13 69 1003.3
20260509225644 72 254 5.0 6.0 0.00 0.27 0.13 69 1003.0
20260509225125 72 259 5.0 6.0 0.00 0.27 0.13 68 1003.2
20260509224605 72 242 9.0 11.0 0.00 0.27 0.13 66 1003.4
20260509224044 72 244 3.0 5.0 0.00 0.27 0.13 68 1003.5
20260509223525 73 241 5.0 6.0 0.00 0.27 0.13 64 1003.3
20260509223006 72 248 4.0 6.0 0.00 0.28 0.13 64 1003.3
20260509222445 72 280 5.0 5.0 0.00 0.28 0.13 66 1003.1
20260509221924 73 269 8.0 10.0 0.00 0.29 0.13 66 1003.1
20260509221405 73 264 7.0 9.0 0.00 0.29 0.13 66 1003.1
20260509220844 73 243 6.0 8.0 0.00 0.29 0.13 66 1003.0
20260509220325 73 242 7.0 9.0 0.00 0.29 0.13 65 1003.1
20260509215806 73 296 6.0 9.0 0.00 0.29 0.13 63 1003.3
20260509215244 73 269 7.0 9.0 0.00 0.29 0.13 62 1003.3
20260509214725 73 249 7.0 10.0 0.00 0.29 0.13 62 1003.2
20260509213645 73 265 6.0 8.0 0.00 0.29 0.13 61 1003.1
20260509213125 73 244 8.0 10.0 0.00 0.29 0.13 65 1003.1
20260509212605 73 233 5.0 5.0 0.00 0.29 0.13 66 1003.1
20260509212045 73 287 5.0 5.0 0.00 0.29 0.13 65 1003.1
20260509211007 73 237 4.0 5.0 0.00 0.29 0.13 69 1003.2
20260509210429 73 255 10.0 11.0 0.00 0.30 0.13 69 1002.9
20260509205909 72 267 8.0 10.0 0.00 0.30 0.13 66 1002.9
20260509205349 72 252 8.0 9.0 0.00 0.30 0.13 68 1003.1
20260509204829 73 278 6.0 8.0 0.00 0.30 0.13 69 1003.1
20260509204309 72 287 6.0 8.0 0.00 0.31 0.13 67 1003.0
20260509203229 72 276 5.0 6.0 0.00 0.31 0.13 72 1003.2
20260509202709 72 235 8.0 10.0 0.00 0.31 0.13 71 1002.7
20260509202149 72 238 4.0 5.0 0.00 0.31 0.13 72 1002.9
20260509201629 72 184 5.0 5.0 0.00 0.31 0.13 72 1002.9
20260509201109 72 267 8.0 9.0 0.00 0.31 0.13 70 1003.0
20260509200549 72 242 9.0 10.0 0.00 0.31 0.13 70 1003.0
20260509200029 71 270 6.0 8.0 0.00 0.31 0.13 73 1002.9
20260509195509 72 237 10.0 11.0 0.00 0.31 0.13 70 1003.2
20260509194949 71 210 9.0 10.0 0.00 0.31 0.13 70 1003.4
20260509194429 71 249 9.0 10.0 0.00 0.31 0.13 70 1003.2
20260509193909 71 223 5.0 8.0 0.00 0.31 0.13 70 1003.3
20260509193349 71 259 6.0 9.0 0.00 0.31 0.13 74 1003.5
20260509191749 69 196 2.0 3.0 0.00 0.31 0.13 76 1003.2
20260509191229 69 240 4.0 6.0 0.00 0.31 0.13 77 1003.3
20260509190709 69 221 8.0 12.0 0.00 0.31 0.13 75 1003.3
20260509190149 69 210 2.0 4.0 0.00 0.31 0.13 79 1003.7
20260509185629 69 218 6.0 6.0 0.00 0.31 0.13 76 1003.7
20260509185109 69 270 7.0 8.0 0.00 0.31 0.13 74 1003.6
20260509184549 69 238 7.0 9.0 0.00 0.31 0.13 78 1003.6
20260509184029 68 245 5.0 6.0 0.00 0.31 0.13 78 1003.5
20260509183510 68 232 2.0 3.0 0.00 0.31 0.13 81 1003.8
20260509182949 68 238 3.0 5.0 0.00 0.31 0.13 80 1003.6
20260509181910 67 227 6.0 8.0 0.00 0.31 0.13 79 1003.6
20260509180310 67 223 6.0 11.0 0.00 0.31 0.13 81 1003.9
20260509175229 66 194 3.0 4.0 0.00 0.31 0.13 81 1003.8
20260509174710 66 191 1.0 2.0 0.00 0.31 0.13 83 1003.8
20260509173629 66 251 8.0 11.0 0.00 0.31 0.13 84 1003.8
20260509173110 66 216 4.0 5.0 0.00 0.31 0.13 83 1004.1
20260509172549 66 226 3.0 5.0 0.00 0.31 0.13 85 1004.1
20260509171510 64 215 5.0 6.0 0.00 0.31 0.13 85 1004.4
20260509170949 64 238 4.0 8.0 0.00 0.31 0.13 86 1004.1
20260509170429 64 228 4.0 5.0 0.00 0.31 0.13 86 1004.2
20260509165909 64 197 7.0 8.0 0.00 0.31 0.13 84 1004.1
20260509165349 63 203 5.0 8.0 0.00 0.31 0.13 87 1004.1
20260509164829 63 212 3.0 4.0 0.00 0.31 0.13 86 1004.3
20260509164310 63 220 3.0 5.0 0.00 0.31 0.13 86 1004.3
20260509163749 63 227 5.0 6.0 0.00 0.31 0.13 87 1004.3
20260509163229 63 189 7.0 10.0 0.00 0.31 0.13 87 1004.3
20260509162710 62 226 6.0 8.0 0.00 0.31 0.13 88 1004.2
20260509162149 62 228 9.0 11.0 0.00 0.31 0.13 87 1004.3
20260509161110 62 157 6.0 10.0 0.00 0.31 0.13 88 1004.2
20260509160030 61 248 4.0 5.0 0.00 0.31 0.13 90 1004.6
20260509154949 61 239 6.0 9.0 0.00 0.31 0.13 90 1004.2
20260509154429 61 186 4.0 5.0 0.00 0.31 0.13 91 1004.4
20260509153910 61 193 3.0 4.0 0.00 0.31 0.13 91 1004.2
20260509153349 60 233 4.0 6.0 0.00 0.31 0.13 91 1004.2
20260509152829 59 225 2.0 3.0 0.00 0.31 0.13 94 1004.3
20260509152310 60 204 2.0 4.0 0.00 0.31 0.13 94 1004.4
20260509151750 59 223 4.0 4.0 0.00 0.31 0.13 92 1003.9
20260509151230 59 194 3.0 4.0 0.00 0.31 0.13 94 1004.1
20260509150149 59 252 4.0 4.0 0.00 0.31 0.13 95 1004.2
20260509145630 58 222 7.0 9.0 0.00 0.31 0.13 95 1003.8
20260509145110 58 236 4.0 5.0 0.00 0.31 0.13 96 1004.0
20260509144549 57 227 6.0 9.0 0.00 0.31 0.13 97 1004.3
20260509143510 57 232 2.0 3.0 0.00 0.31 0.13 99 1004.2
20260509142429 56 153 4.0 4.0 0.00 0.31 0.13 99 1004.3
20260509141349 56 245 6.0 6.0 0.00 0.31 0.13 99 1004.1
20260509140829 56 237 6.0 8.0 0.00 0.31 0.13 99 1004.1
20260509140310 56 241 2.0 5.0 0.00 0.31 0.13 99 1004.1
20260509135749 55 209 4.0 5.0 0.00 0.31 0.13 99 1003.9
20260509135229 55 221 5.0 6.0 0.00 0.31 0.13 99 1004.1
20260509134710 55 232 3.0 6.0 0.00 0.31 0.13 99 1004.3
20260509134149 55 238 3.0 3.0 0.00 0.31 0.13 99 1004.2
20260509133633 54 232 2.0 3.0 0.00 0.31 0.13 99 1004.1
20260509133034 54 250 4.0 5.0 0.00 0.31 0.13 99 1004.3
20260509132434 54 248 2.0 4.0 0.00 0.31 0.13 99 1004.0
20260509131834 54 249 0.0 2.0 0.00 0.31 0.13 99 1004.0
20260509130034 53 246 3.0 5.0 0.00 0.31 0.13 99 1004.4
20260509125433 53 246 2.0 4.0 0.00 0.31 0.13 99 1004.3
20260509124834 53 239 4.0 5.0 0.00 0.31 0.13 99 1004.4
20260509124234 53 236 0.0 1.0 0.00 0.31 0.13 99 1004.3
20260509123633 52 242 3.0 4.0 0.00 0.31 0.13 99 1004.5
20260509123034 52 254 4.0 5.0 0.00 0.31 0.13 99 1004.2
20260509122434 52 229 1.0 4.0 0.00 0.31 0.13 99 1004.0
20260509121834 52 229 0.0 0.0 0.00 0.31 0.13 99 1004.3
20260509121234 52 244 0.0 0.0 0.00 0.31 0.13 99 1004.2
20260509120634 52 234 0.0 0.0 0.00 0.31 0.13 99 1004.0
20260509120034 52 251 1.0 4.0 0.00 0.31 0.13 99 1004.2
20260509115434 52 252 0.0 2.0 0.00 0.31 0.13 99 1004.0
20260509114834 52 222 2.0 3.0 0.00 0.31 0.13 99 1003.7
20260509114234 52 223 2.0 3.0 0.00 0.31 0.13 99 1003.5
20260509113633 52 215 3.0 4.0 0.00 0.31 0.13 99 1003.6
20260509113034 52 204 2.0 3.0 0.00 0.31 0.13 99 1003.5
20260509112433 52 211 0.0 0.0 0.00 0.31 0.13 99 1003.5
20260509111834 52 239 0.0 2.0 0.00 0.31 0.13 99 1003.4
20260509111234 52 245 0.0 0.0 0.00 0.31 0.13 99 1003.2
20260509110726 52 222 0.0 0.0 0.00 0.31 0.13 99 1003.3
20260509110206 52 222 0.0 0.0 0.00 0.31 0.13 99 1003.4
20260509105645 52 221 0.0 0.0 0.00 0.31 0.13 99 1003.3
20260509105033 52 240 0.0 0.0 0.00 0.31 0.13 99 1003.3
20260509103957 52 240 2.0 3.0 0.00 0.31 0.13 99 1003.3
20260509103438 52 230 0.0 1.0 0.00 0.31 0.13 99 1003.3
20260509102934 52 224 0.0 0.0 0.00 0.31 0.13 99 1003.1
20260509102333 52 223 0.0 0.0 0.00 0.31 0.13 99 1003.3
20260509101733 52 223 0.0 0.0 0.00 0.31 0.13 99 1003.2
20260509101133 52 223 0.0 0.0 0.00 0.31 0.13 99 1003.0
20260509100533 52 221 0.0 0.0 0.00 0.31 0.13 99 1003.0
20260509095934 52 194 0.0 0.0 0.00 0.31 0.13 99 1002.9
20260509095333 52 193 0.0 0.0 0.00 0.31 0.13 99 1002.9
20260509094830 52 192 0.0 0.0 0.00 0.31 0.13 99 1002.7
20260509093750 52 190 0.0 0.0 0.00 0.31 0.13 99 1002.9
20260509092710 51 190 0.0 0.0 0.00 0.31 0.13 99 1002.6
20260509092150 51 185 0.0 0.0 0.00 0.31 0.13 99 1002.8
20260509091630 50 185 0.0 0.0 0.00 0.31 0.13 99 1002.7
20260509091110 50 185 0.0 0.0 0.00 0.31 0.13 99 1002.6
20260509090030 51 190 0.0 0.0 0.00 0.31 0.13 99 1002.4
20260509085511 51 185 0.0 0.0 0.00 0.31 0.13 99 1002.5
20260509084950 51 185 0.0 0.0 0.00 0.31 0.13 99 1002.4
20260509084430 51 190 0.0 0.0 0.00 0.31 0.13 99 1002.6
20260509083350 52 190 0.0 0.0 0.00 0.31 0.13 99 1002.6
20260509082310 52 190 0.0 0.0 0.00 0.31 0.13 99 1002.6
20260509081750 53 185 0.0 0.0 0.00 0.31 0.13 99 1002.8
20260509081230 53 192 0.0 0.0 0.00 0.31 0.13 99 1003.2
20260509080710 53 193 0.0 0.0 0.00 0.31 0.13 99 1002.8
20260509080150 53 192 0.0 0.0 0.00 0.31 0.13 99 1003.0
20260509075630 53 200 0.0 0.0 0.01 0.31 0.13 99 1002.8
20260509075110 53 249 0.0 0.0 0.01 0.31 0.13 99 1003.1
20260509074550 53 249 0.0 0.0 0.01 0.31 0.13 99 1003.1
20260509073510 53 249 0.0 0.0 0.02 0.31 0.13 99 1002.9
20260509072950 53 249 0.0 0.0 0.03 0.31 0.13 99 1003.1
20260509072430 53 249 0.0 0.0 0.04 0.31 0.13 99 1003.2
20260509071910 54 249 0.0 0.0 0.05 0.31 0.13 99 1003.2
20260509071350 54 249 0.0 0.0 0.06 0.31 0.13 99 1003.2
20260509070830 54 249 0.0 0.0 0.06 0.31 0.13 99 1003.4
20260509070310 54 249 0.0 0.0 0.07 0.31 0.13 99 1003.3
20260509065750 54 248 0.0 0.0 0.08 0.30 0.12 99 1003.2
20260509065230 54 189 0.0 0.0 0.09 0.30 0.12 99 1003.3
20260509064710 54 204 0.0 0.0 0.09 0.30 0.12 99 1003.7
20260509064150 54 215 0.0 0.0 0.09 0.29 0.11 99 1003.9
20260509063630 54 226 1.0 2.0 0.09 0.29 0.11 99 1004.2
20260509063110 54 236 3.0 4.0 0.08 0.28 0.10 99 1004.3
20260509062550 54 261 0.0 0.0 0.08 0.27 0.09 99 1004.2
20260509062030 54 265 0.0 0.0 0.07 0.26 0.08 99 1004.2
20260509061510 54 264 0.0 0.0 0.06 0.25 0.07 99 1004.3
20260509060950 54 274 0.0 0.0 0.07 0.25 0.07 99 1004.3
20260509060434 54 238 0.0 0.0 0.06 0.24 0.06 99 1004.4
20260509055834 54 257 0.0 0.0 0.04 0.22 0.04 99 1004.6
20260509055334 54 259 5.0 5.0 0.03 0.21 0.03 99 1004.6
20260509054734 54 290 2.0 3.0 0.03 0.21 0.03 99 1004.5
20260509054134 55 242 0.0 0.0 0.02 0.20 0.02 99 1004.5
20260509053534 55 276 0.0 0.0 0.02 0.20 0.02 99 1004.5
20260509052934 55 246 0.0 0.0 0.01 0.19 0.01 99 1004.4
20260509052430 55 248 0.0 0.0 0.01 0.19 0.01 99 1004.6
20260509051910 55 220 0.0 0.0 0.01 0.19 0.01 99 1004.4
20260509051350 55 245 2.0 4.0 0.00 0.18 0.00 99 1004.4
20260509050735 55 237 1.0 2.0 0.00 0.18 0.00 99 1004.6
20260509050134 55 215 0.0 0.0 0.00 0.18 0.00 99 1004.7
20260509045631 55 232 1.0 3.0 0.00 0.18 0.18 99 1004.7
20260509045111 55 243 3.0 4.0 0.00 0.18 0.18 99 1004.7
20260509044550 55 224 2.0 3.0 0.00 0.18 0.18 99 1004.6
20260509044034 55 219 1.0 2.0 0.01 0.18 0.18 99 1004.6
20260509042834 55 216 0.0 1.0 0.01 0.18 0.18 99 1004.5
20260509042234 55 193 0.0 0.0 0.01 0.18 0.18 99 1004.5
20260509041734 55 231 2.0 3.0 0.02 0.18 0.18 99 1004.7
20260509041134 55 233 0.0 0.0 0.02 0.18 0.18 99 1004.6
20260509040534 55 215 0.0 1.0 0.02 0.18 0.18 99 1004.5
20260509040034 55 206 1.0 2.0 0.03 0.18 0.18 99 1004.2
20260509035526 55 178 0.0 0.0 0.03 0.18 0.18 99 1004.2
20260509035007 55 227 0.0 0.0 0.03 0.18 0.18 99 1004.7
20260509034446 55 159 0.0 0.0 0.03 0.18 0.18 99 1004.5
20260509033934 55 224 0.0 0.0 0.03 0.17 0.17 99 1004.8
20260509033334 55 196 0.0 0.0 0.03 0.17 0.17 99 1004.7
20260509032814 55 206 0.0 0.0 0.03 0.17 0.17 99 1004.8
20260509032254 55 205 0.0 0.0 0.03 0.17 0.17 99 1004.8
20260509031734 55 201 0.0 0.0 0.02 0.16 0.16 99 1004.5
20260509031215 55 189 0.0 0.0 0.03 0.16 0.16 99 1004.8
20260509030655 55 171 0.0 0.0 0.03 0.16 0.16 99 1005.0
20260509030134 55 233 1.0 2.0 0.03 0.15 0.15 99 1004.9
20260509025634 55 182 0.0 0.0 0.03 0.15 0.15 99 1004.9
20260509025034 55 223 1.0 1.0 0.03 0.15 0.15 99 1005.0
20260509024519 55 231 0.0 0.0 0.03 0.15 0.15 99 1005.2
20260509023959 55 231 0.0 0.0 0.02 0.14 0.14 99 1005.1
20260509023438 55 232 0.0 0.0 0.02 0.14 0.14 99 1004.8
20260509022834 55 232 0.0 0.0 0.02 0.14 0.14 99 1004.8
20260509022234 55 232 0.0 0.0 0.02 0.14 0.14 99 1004.9
20260509021634 55 232 0.0 0.0 0.01 0.13 0.13 99 1005.1
20260509015911 55 242 1.0 2.0 0.02 0.12 0.12 99 1005.2
20260509015350 55 258 0.0 0.0 0.02 0.12 0.12 99 1004.9
20260509014830 55 258 0.0 0.0 0.02 0.12 0.12 99 1004.6
20260509014311 55 258 0.0 0.0 0.03 0.12 0.12 99 1004.4
20260509013751 55 258 0.0 0.0 0.03 0.12 0.12 99 1004.2
20260509013231 55 258 0.0 0.0 0.03 0.12 0.12 99 1004.2
20260509012710 55 259 0.0 0.0 0.03 0.12 0.12 99 1004.5
20260509012150 55 259 0.0 0.0 0.03 0.12 0.12 99 1004.8
20260509011630 55 259 0.0 0.0 0.04 0.12 0.12 99 1004.4
20260509011111 55 259 0.0 0.0 0.03 0.11 0.11 99 1004.5
20260509010551 55 258 0.0 0.0 0.05 0.11 0.11 99 1004.5
20260509010031 55 258 0.0 0.0 0.04 0.10 0.10 99 1004.3
20260509005511 55 258 0.0 0.0 0.04 0.10 0.10 99 1004.5
20260509004951 55 258 0.0 0.0 0.04 0.10 0.10 99 1004.5
20260509004431 55 259 0.0 0.0 0.03 0.09 0.09 99 1004.5
20260509003911 55 259 0.0 0.0 0.03 0.09 0.09 99 1004.3
20260509003350 55 259 0.0 0.0 0.03 0.09 0.09 99 1004.0
20260509002831 56 259 0.0 0.0 0.04 0.09 0.09 99 1004.2
20260509002311 56 259 0.0 0.0 0.04 0.09 0.09 99 1004.3
20260509001751 56 259 0.0 0.0 0.04 0.09 0.09 99 1004.3
20260509001231 56 259 0.0 0.0 0.03 0.08 0.08 99 1004.6
20260509000151 56 258 0.0 0.0 0.01 0.06 0.06 99 1004.7
20260508235631 56 258 0.0 0.0 0.02 0.06 0.06 99 1004.3
20260508235111 56 258 0.0 0.0 0.02 0.06 0.06 99 1004.3
20260508234551 56 258 0.0 0.0 0.02 0.06 0.06 99 1004.6
20260508234031 56 259 0.0 0.0 0.02 0.06 0.06 98 1004.5
20260508232951 56 259 0.0 0.0 0.02 0.05 0.05 98 1004.6
20260508232431 56 259 0.0 0.0 0.02 0.05 0.05 98 1004.8
20260508231911 56 259 0.0 0.0 0.03 0.05 0.05 97 1004.9
20260508231351 56 259 0.0 1.0 0.03 0.05 0.05 97 1005.0
20260508230831 56 259 0.0 1.0 0.03 0.05 0.05 97 1004.9